Starlink 31254

operational
NORAD ID: 58892 Int'l Des: 2024-020 Owner: SPXS Country: US Constellation: starlink
LEOCIRCULAR

关于 Starlink 31254

正在加载描述...

实时位置

正在加载3D地球...

即将过境

高度历史

Altitude vs Time

uPlot chart will show altitude changes over time

两行轨道根数

1 58892U 24020S 25259.13668769 .00020364 00000-0 67855-3 0 9998
2 58892 53.1599 53.4018 0000735 29.4261 330.6781 15.31107201 91342
Epoch: Sep 16, 2025 • Age: 15 hours

当前状态

高度 484.7 km
速度 7.62 km/s
星下点 -36.53°S, 7.53°W
发射日期 Jan 29, 2024
运行时间 1.6 years
类型 internet

技术详情

分类 Payload
质量 730.00 kg
干质量 700.00 kg
总质量 730.00 kg
长度 0.30 m
直径 4.10 m
跨度 29.00 m
形状 Box + pan
制造商 SPXS
平台类型 Starlink V2M
阶段状态 In Orbit
所有者/国家 SPXS/US

大型星座

Loading constellations...